| time (UTC) | temp C | wind direction | speed KPH | gust KPH | rain 1hr cm | rain 24hr cm | rain mn cm | humidity % | barometer mb |
| 20260504040013 | 15 | 224 | 1.6 | 9.7 | 0.00 | 0.00 | 0.00 | 63 | 1006.4 |
| 20260504035013 | 15 | 210 | 4.8 | 9.7 | 0.00 | 0.00 | 0.00 | 62 | 1006.4 |
| 20260504034013 | 15 | 235 | 1.6 | 11.3 | 0.00 | 0.00 | 0.00 | 62 | 1006.6 |
| 20260504033013 | 16 | 228 | 3.2 | 8.0 | 0.00 | 0.00 | 0.00 | 62 | 1006.7 |
| 20260504032012 | 16 | 235 | 1.6 | 4.8 | 0.00 | 0.00 | 0.00 | 61 | 1006.9 |
| 20260504031011 | 16 | 218 | 1.6 | 8.0 | 0.00 | 0.00 | 0.00 | 61 | 1006.8 |
| 20260504030012 | 16 | 218 | 1.6 | 8.0 | 0.00 | 0.00 | 0.00 | 61 | 1006.9 |
| 20260504025011 | 16 | 248 | 3.2 | 8.0 | 0.00 | 0.00 | 0.00 | 60 | 1006.9 |
| 20260504024011 | 16 | 203 | 0.0 | 9.7 | 0.00 | 0.00 | 0.00 | 59 | 1006.9 |
| 20260504023011 | 16 | 255 | 1.6 | 6.4 | 0.00 | 0.00 | 0.00 | 58 | 1006.8 |
| 20260504022010 | 17 | 253 | 0.0 | 6.4 | 0.00 | 0.00 | 0.00 | 58 | 1006.8 |
| 20260504021010 | 17 | 229 | 1.6 | 6.4 | 0.00 | 0.00 | 0.00 | 57 | 1006.7 |
| 20260504015009 | 17 | 243 | 6.4 | 11.3 | 0.00 | 0.00 | 0.00 | 56 | 1006.6 |
| 20260504014010 | 17 | 221 | 1.6 | 6.4 | 0.00 | 0.00 | 0.00 | 55 | 1006.4 |
| 20260504013009 | 17 | 225 | 1.6 | 4.8 | 0.00 | 0.00 | 0.00 | 54 | 1006.3 |
| 20260504012009 | 17 | 238 | 3.2 | 4.8 | 0.00 | 0.00 | 0.00 | 53 | 1006.2 |
| 20260504011008 | 18 | 240 | 0.0 | 4.8 | 0.00 | 0.00 | 0.00 | 52 | 1006.0 |
| 20260504010038 | 18 | 232 | 3.2 | 4.8 | 0.00 | 0.00 | 0.00 | 50 | 1006.2 |
| 20260504005008 | 19 | 243 | 3.2 | 11.3 | 0.00 | 0.00 | 0.00 | 49 | 1006.2 |
| 20260504004008 | 19 | 249 | 0.0 | 17.7 | 0.00 | 0.00 | 0.00 | 48 | 1006.2 |
| 20260504003037 | 20 | 264 | 1.6 | 14.5 | 0.00 | 0.00 | 0.00 | 46 | 1006.2 |
| 20260504002007 | 20 | 274 | 1.6 | 12.9 | 0.00 | 0.00 | 0.00 | 46 | 1006.2 |
| 20260504001006 | 20 | 260 | 3.2 | 14.5 | 0.00 | 0.00 | 0.00 | 45 | 1006.2 |
| 20260504000037 | 20 | 255 | 14.5 | 17.7 | 0.00 | 0.00 | 0.00 | 45 | 1006.2 |
| 20260503235006 | 20 | 235 | 4.8 | 16.1 | 0.00 | 0.00 | 0.00 | 44 | 1006.1 |
| 20260503234006 | 20 | 262 | 1.6 | 16.1 | 0.00 | 0.00 | 0.00 | 44 | 1006.1 |
| 20260503233006 | 20 | 256 | 3.2 | 17.7 | 0.00 | 0.00 | 0.00 | 43 | 1006.1 |
| 20260503232036 | 20 | 276 | 11.3 | 19.3 | 0.00 | 0.00 | 0.00 | 43 | 1006.2 |
| 20260503231005 | 20 | 210 | 14.5 | 29.0 | 0.00 | 0.00 | 0.00 | 43 | 1006.3 |
| 20260503230035 | 21 | 107 | 3.2 | 22.5 | 0.00 | 0.00 | 0.00 | 43 | 1006.4 |
| 20260503225035 | 20 | 181 | 14.5 | 20.9 | 0.00 | 0.00 | 0.00 | 43 | 1006.4 |
| 20260503224034 | 20 | 226 | 11.3 | 20.9 | 0.00 | 0.00 | 0.00 | 43 | 1006.6 |
| 20260503222035 | 20 | 290 | 9.7 | 27.4 | 0.00 | 0.00 | 0.00 | 42 | 1006.8 |
| 20260503221033 | 20 | 226 | 11.3 | 24.1 | 0.00 | 0.00 | 0.00 | 42 | 1007.1 |
| 20260503220034 | 20 | 146 | 12.9 | 27.4 | 0.00 | 0.00 | 0.00 | 42 | 1007.0 |
| 20260503215034 | 20 | 181 | 8.0 | 29.0 | 0.00 | 0.00 | 0.00 | 41 | 1007.1 |
| 20260503214033 | 20 | 191 | 12.9 | 41.8 | 0.00 | 0.00 | 0.00 | 41 | 1007.0 |
| 20260503213032 | 20 | 280 | 9.7 | 24.1 | 0.00 | 0.00 | 0.00 | 41 | 1007.4 |
| 20260503212032 | 20 | 226 | 14.5 | 25.7 | 0.00 | 0.00 | 0.00 | 40 | 1007.4 |
| 20260503211032 | 20 | 248 | 9.7 | 25.7 | 0.00 | 0.00 | 0.00 | 41 | 1007.6 |
| 20260503210032 | 20 | 245 | 24.1 | 30.6 | 0.00 | 0.00 | 0.00 | 40 | 1007.7 |
| 20260503203030 | 19 | 253 | 9.7 | 30.6 | 0.00 | 0.00 | 0.00 | 44 | 1008.4 |
| 20260503202030 | 19 | 221 | 12.9 | 24.1 | 0.00 | 0.00 | 0.00 | 44 | 1008.7 |
| 20260503201030 | 18 | 197 | 14.5 | 29.0 | 0.00 | 0.00 | 0.00 | 45 | 1008.9 |
| 20260503200030 | 17 | 203 | 16.1 | 24.1 | 0.00 | 0.00 | 0.00 | 50 | 1009.1 |
| 20260503195030 | 17 | 338 | 16.1 | 27.4 | 0.00 | 0.00 | 0.00 | 49 | 1009.1 |
| 20260503194029 | 17 | 218 | 12.9 | 30.6 | 0.00 | 0.00 | 0.00 | 51 | 1009.3 |
| 20260503193030 | 17 | 210 | 12.9 | 22.5 | 0.00 | 0.00 | 0.00 | 51 | 1009.2 |
| 20260503192028 | 16 | 224 | 3.2 | 25.7 | 0.00 | 0.00 | 0.00 | 52 | 1009.4 |
| 20260503191029 | 16 | 238 | 12.9 | 37.0 | 0.00 | 0.00 | 0.00 | 50 | 1009.5 |
| 20260503190029 | 16 | 214 | 16.1 | 27.4 | 0.00 | 0.00 | 0.00 | 52 | 1009.6 |
| 20260503185027 | 15 | 253 | 11.3 | 37.0 | 0.00 | 0.00 | 0.00 | 54 | 1009.8 |
| 20260503184027 | 15 | 221 | 9.7 | 25.7 | 0.00 | 0.00 | 0.00 | 54 | 1010.0 |
| 20260503182026 | 14 | 222 | 16.1 | 25.7 | 0.00 | 0.00 | 0.00 | 58 | 1010.3 |
| 20260503180026 | 13 | 210 | 14.5 | 29.0 | 0.00 | 0.00 | 0.00 | 60 | 1011.1 |
| 20260503175027 | 13 | 218 | 16.1 | 37.0 | 0.00 | 0.00 | 0.00 | 60 | 1011.4 |
| 20260503173025 | 12 | 260 | 3.2 | 27.4 | 0.00 | 0.00 | 0.00 | 63 | 1012.1 |
| 20260503172026 | 12 | 246 | 6.4 | 32.2 | 0.00 | 0.00 | 0.00 | 66 | 1012.3 |
| 20260503171025 | 12 | 212 | 3.2 | 27.4 | 0.00 | 0.00 | 0.00 | 67 | 1012.2 |
| 20260503131018 | 11 | 281 | 4.8 | 17.7 | 0.00 | 0.00 | 0.00 | 56 | 1014.3 |
| 20260503081009 | 7 | 274 | 4.8 | 8.0 | 0.00 | 0.00 | 0.00 | 59 | 1014.7 |
| 20260503072008 | 7 | 271 | 1.6 | 4.8 | 0.00 | 0.00 | 0.00 | 58 | 1014.9 |
| 20260503071008 | 7 | 273 | 1.6 | 4.8 | 0.00 | 0.00 | 0.00 | 57 | 1015.0 |
| 20260503054005 | 7 | 262 | 1.6 | 3.2 | 0.00 | 0.00 | 0.00 | 59 | 1015.7 |
| 20260503053005 | 8 | 262 | 0.0 | 6.4 | 0.00 | 0.00 | 0.00 | 59 | 1015.8 |
| 20260503052035 | 8 | 260 | 1.6 | 4.8 | 0.00 | 0.00 | 0.00 | 59 | 1015.9 |
| 20260503051035 | 8 | 259 | 1.6 | 4.8 | 0.00 | 0.00 | 0.00 | 59 | 1015.9 |
| 20260503050034 | 8 | 257 | 1.6 | 4.8 | 0.00 | 0.00 | 0.00 | 59 | 1015.9 |
| 20260503045034 | 8 | 257 | 1.6 | 4.8 | 0.00 | 0.00 | 0.00 | 58 | 1016.0 |
| 20260503044034 | 8 | 257 | 0.0 | 6.4 | 0.00 | 0.00 | 0.00 | 59 | 1016.0 |
| 20260503043034 | 8 | 259 | 1.6 | 4.8 | 0.00 | 0.00 | 0.00 | 60 | 1016.0 |
| 20260503042033 | 8 | 259 | 0.0 | 4.8 | 0.00 | 0.00 | 0.00 | 59 | 1016.0 |
| 20260503041032 | 8 | 257 | 0.0 | 3.2 | 0.00 | 0.00 | 0.00 | 60 | 1016.1 |